#timestamp,LO_Frequency,Hit,StdDev 
1593889215.2,286046995.6,N
1593889235.9,286046995.8,N
1593889255.7,286046998.0,N
1593889275.6,286046995.6,N
1593889295.4,286046994.9,N
1593889315.2,286046994.9,N
1593889335.1,286046997.4,N
1593889336.0,286046997.4,N
1593889355.8,286046997.9,N
1593889375.7,286046997.6,N
1593889395.5,286046995.3,N
1593889415.3,286046996.1,N
1593889435.2,286046996.0,N
1593889455.9,286046995.6,N
1593889475.7,286046993.5,N
1593889495.6,286046995.9,N
1593889515.4,286046996.8,N
1593889535.2,286047000.7,N
1593889555.1,286047002.4,N
1593889556.0,286047002.4,N
1593889575.8,286047002.7,N
1593889595.7,286047004.2,N
1593889615.5,286047003.5,N
1593889635.3,286047004.1,N
1593889655.2,286047003.2,N
1593889675.0,286047003.3,N
1593889675.9,286047003.3,N
1593889695.8,286047007.6,N
1593889715.6,286047009.7,N
1593889735.4,286047010.0,N
1593889755.3,286047010.8,N
1593889775.1,286047006.1,N
1593889795.8,286047010.4,N
1593889815.7,286047009.7,N
1593889835.5,286047009.3,N
1593889855.3,286047013.9,N
1593889875.2,286047012.9,N
1593889895.0,286047015.5,N
1593889895.9,286047015.5,N
1593889915.8,286047017.2,N
1593889935.6,286047014.1,N
1593889955.4,286047017.1,N
1593889975.3,286047015.9,N
1593889995.1,286047018.6,N
1593890015.9,286047016.2,N
1593890035.7,286047017.1,N
1593890055.5,286047011.2,N
1593890075.4,286047009.0,N
1593890095.2,286047007.3,N
1593890115.0,286047003.9,N
1593890115.9,286047003.9,N
1593890135.8,286047000.2,N
1593890155.6,286046998.5,N
1593890175.5,286046995.0,N
1593890195.3,286046995.4,N
1593890215.1,286046997.7,N
1593890235.9,286046997.3,N
1593890255.7,286046998.8,N
1593890275.5,286047000.2,N
1593890295.4,286047000.2,N
1593890315.2,286047000.1,N
1593890335.1,286047002.4,N
1593890336.0,286047002.4,N
1593890355.8,286047002.2,N
1593890375.6,286047001.9,N
1593890395.5,286046999.7,N
1593890415.3,286047001.7,N
1593890435.2,286047004.0,N
1593890455.9,286047003.7,N
1593890475.7,286047003.3,N
1593890495.6,286047007.1,N
1593890515.4,286047006.3,N
1593890535.2,286047007.4,N
1593890555.1,286047006.9,N
1593890556.0,286047006.9,N
1593890575.8,286047006.6,N
1593890595.7,286047004.5,N
1593890615.5,286047007.4,N
1593890635.3,286047004.5,N
1593890655.2,286047006.5,N
1593890675.0,286047008.4,N
1593890675.9,286047008.4,N
1593890695.8,286047012.2,Y
1593890715.6,286047010.7,P
1593890735.4,286047010.4,N
1593890755.3,286047010.0,N
1593890775.1,286047011.2,Y
1593890795.8,286047007.6,P
1593890815.7,286047009.0,P
1593890835.5,286047010.4,P
1593890855.4,286047012.2,Y
1593890875.2,286047003.0,P
1593890895.0,286047003.2,N
1593890895.9,286047003.2,N
1593890915.8,286047004.5,N
1593890935.6,286047007.0,Y
1593890955.4,286047001.5,P
1593890975.3,286047003.6,N
1593890995.1,286047003.3,N
1593891015.9,286047004.2,Y
1593891035.7,286047000.3,P
1593891055.5,286047001.4,N
1593891075.4,286047004.0,P
1593891095.2,286047003.2,N
1593891115.0,286047003.8,N
1593891116.0,286047003.8,N
1593891135.8,286047003.4,N
1593891155.6,286047004.3,Y
1593891175.5,286046998.3,P
1593891195.3,286046999.1,N
1593891215.1,286046997.7,N
1593891235.9,286046997.9,N
1593891255.7,286046997.5,N
1593891275.6,286046993.4,Y
1593891295.4,286046995.8,P
1593891315.2,286046995.2,P
1593891335.1,286046996.0,N
1593891336.0,286046996.0,N
1593891355.8,286046993.6,Y
1593891375.6,286046997.3,P
1593891395.5,286046997.3,P
1593891415.3,286046995.7,P
1593891435.2,286046996.2,Y
1593891455.9,286046996.5,P
1593891475.7,286046997.6,P
1593891495.6,286046997.7,P
1593891515.4,286046995.1,Y
1593891535.2,286047000.6,P
1593891555.1,286047000.7,N
1593891556.0,286047000.7,N
1593891575.8,286047001.0,N
1593891595.7,286046998.5,N
1593891615.5,286046999.0,N
1593891635.3,286046998.5,N
1593891655.2,286047000.9,N
1593891675.0,286047000.9,N
1593891675.9,286047000.9,N
1593891695.7,286047001.0,N
1593891715.6,286047000.7,N
1593891735.4,286047000.4,N
1593891755.3,286047002.8,N
1593891775.1,286046999.8,N
1593891776.0,286046999.8,N
1593891795.8,286047002.8,N
1593891815.7,286046999.8,N
1593891835.5,286047000.3,N
1593891855.3,286047001.1,N
1593891875.2,286046999.4,N
1593891895.0,286046998.9,N
1593891895.9,286046998.9,N
1593891915.8,286046998.6,N
1593891935.6,286046999.2,N
1593891955.4,286047000.6,N
1593891975.3,286047000.5,N
1593891995.1,286047000.3,N
1593892015.8,286047000.3,N
1593892035.7,286046999.7,N
1593892055.5,286047002.5,N
1593892075.4,286047002.0,N
1593892095.2,286047002.1,N
1593892115.0,286047001.5,N
1593892115.9,286047001.5,N
1593892135.8,286046999.7,N
1593892155.6,286047002.3,N
1593892175.4,286047002.7,N
1593892195.3,286046999.8,N
1593892215.1,286047002.7,N
1593892235.9,286047000.1,N
1593892255.7,286047002.8,N
1593892275.5,286047000.4,N
1593892295.4,286046998.1,N
1593892315.2,286047001.0,N
1593892335.0,286046998.4,N
1593892335.9,286046998.4,N
1593892355.8,286046999.0,N
1593892375.6,286046996.9,N
1593892395.5,286046998.0,N
1593892415.3,286046997.8,N
1593892435.1,286046997.8,N
1593892455.9,286046995.7,N
1593892475.7,286046996.2,N
1593892495.5,286046995.8,N
1593892515.4,286046997.5,N
1593892535.2,286046998.0,N
1593892555.1,286046995.1,N
1593892556.0,286046995.1,N
1593892575.8,286046998.0,N
1593892595.6,286046995.4,N
1593892615.5,286046994.9,N
1593892635.3,286046996.1,N
1593892655.1,286046995.9,N
1593892675.9,286046995.3,N
1593892695.7,286046997.8,N
1593892715.6,286046997.4,N
1593892735.4,286046997.8,N
1593892755.2,286046994.9,N
1593892775.1,286046997.8,N
1593892776.0,286046997.8,N
1593892795.8,286046996.8,N
